User: anonymous   Login
Location: Barrio Las Umbrías
(40.4173°N, 4.8685°W)
Time: 15:25:36
(UTC+00:00)
Language:

NIUSAT - Orbit

View from above orbital plane
View from above orbital plane
View from above satellite
View from above satellite

Ground track
Ground track

The orbit data is extracted from the following two-line orbital elements,

1 42766U 17036B   24114.09438474  .01576744  17790-2  18433-2 0  9994
2 42766  97.0886 150.1956 0005086 226.5521 133.5340 16.09181421380962
Epoch (UTC): 23 April 2024 02:15:54
Eccentricity: 0.0005086
inclination: 97.0886°
perigee height: 246 km
apogee height: 252 km
right ascension of ascending node: 150.1956°
argument of perigee: 226.5521°
revolutions per day: 16.09181421
mean anomaly at epoch: 133.5340°
orbit number at epoch: 38096

The dashed part of the orbit path shows where the satellite is in the earth's shadow,  

DLR